Location: Prague
(50.0830°N, 14.4670°E)
Time: 09:58:59
(UTC+02:00)

RS-15 - Pass Details

Date: 10 April 2023
Orbit: 1885 x 2159 km, 64.8° (Epoch: 29 May)

Event Time Altitude Azimuth Distance (km) Brightness Sun altitude
Rises 20:59:24 0° 305° (NW) 5,675 12.5 -11.5°
Reaches altitude 10° 21:03:08 10° 312° (NW) 4,653 11.4 -12.1°
Maximum altitude 21:14:55 50° 26° (NNE) 2,520 8.6 -13.7°
Enters shadow 21:25:00 14° 98° (E) 4,156 9.2 -15.1°
